Date String (YYYY-MM-DD hh:mm:ss) UTC,Instrument flags,Ambient pressure (hPa),Sample flow (lpm),Bypass flow (lpm),Sample temperature (°C),Ambient temperature (°C),ASC tube jacket temperature (°C),LED temperature (°C),Box temperature (°C),Sample RH (%),Span deviation,Mass concentration (μg/m³),Mass concentration (μg/m³),Mass concentration (μg/m³)
DateTimeUTC,F1_M11,P_M11,Q1_M11,Q2_M11,T1_M11,T2_M11,T3_M11,T4_M11,T5_M11,U1_M11,ZSPAN_M11,X0_M11,X2_M11,X1_M11
2021-10-15 18:00:00,,0832.7,4.99,0.00,25.5,24.8,00.0,34.4,27.4,09.1,0000.0,0003.89,0002.67,0002.30
2021-10-15 18:01:00,,0832.7,5.00,0.00,25.5,24.8,00.0,34.4,27.4,09.1,0000.0,0003.83,0002.65,0002.28
2021-10-15 18:02:00,,0832.7,5.00,0.00,25.5,24.8,00.0,34.5,27.4,09.2,0000.0,0003.67,0002.60,0002.25
2021-10-15 18:03:00,,0832.7,5.00,0.00,25.5,24.8,00.0,34.5,27.5,09.1,0000.0,0003.53,0002.57,0002.24
2021-10-15 18:04:00,,0832.7,4.99,0.00,25.5,24.8,00.0,34.5,27.5,09.3,0000.0,0003.50,0002.51,0002.21
2021-10-15 18:05:00,,0832.7,5.00,0.00,25.6,24.9,00.0,34.5,27.5,09.3,0000.0,0003.55,0002.48,0002.19
2021-10-15 18:06:00,,0832.7,5.01,0.00,25.6,24.9,00.0,34.5,27.5,09.1,0000.0,0003.66,0002.47,0002.18
2021-10-15 18:07:00,,0832.7,5.01,0.00,25.6,24.9,00.0,34.5,27.5,09.1,0000.0,0003.51,0002.44,0002.19
2021-10-15 18:08:00,,0832.7,4.99,0.00,25.6,24.9,00.0,34.6,27.6,09.3,0000.0,0004.07,0002.44,0002.18
2021-10-15 18:09:00,,0832.7,5.00,0.00,25.6,24.9,00.0,34.6,27.6,08.9,0000.0,0004.31,0002.45,0002.16
2021-10-15 18:10:00,,0832.6,5.00,0.00,25.6,24.9,00.0,34.6,27.6,09.1,0000.0,0005.02,0002.46,0002.14
2021-10-15 18:11:00,,0832.6,5.01,0.00,25.7,25.0,00.0,34.6,27.6,08.9,0000.0,0005.24,0002.45,0002.14
2021-10-15 18:12:00,,0832.6,4.99,0.00,25.7,25.0,00.0,34.6,27.6,08.9,0000.0,0005.78,0002.44,0002.13
2021-10-15 18:13:00,,0832.6,5.00,0.00,25.7,25.0,00.0,34.6,27.6,09.0,0000.0,0006.96,0002.44,0002.11
2021-10-15 18:14:00,,0832.6,5.01,0.00,25.7,25.0,00.0,34.7,27.6,09.0,0000.0,0006.98,0002.45,0002.11
2021-10-15 18:15:00,,0832.6,4.99,0.00,25.7,25.0,00.0,34.7,27.7,08.8,0000.0,0006.95,0002.46,0002.10
2021-10-15 18:16:00,,0832.6,5.00,0.00,25.7,25.0,00.0,34.7,27.7,08.8,0000.0,0006.93,0002.49,0002.11
2021-10-15 18:17:00,,0832.6,5.00,0.00,25.7,25.0,00.0,34.7,27.7,08.7,0000.0,0006.78,0002.50,0002.12
2021-10-15 18:18:00,,0832.7,5.00,0.00,25.8,25.0,00.0,34.7,27.7,08.9,0000.0,0006.97,0002.52,0002.12
2021-10-15 18:19:00,,0832.6,4.99,0.00,25.8,25.0,00.0,34.7,27.7,08.7,0000.0,0006.74,0002.54,0002.13
2021-10-15 18:20:00,,0832.6,4.99,0.00,25.8,25.1,00.0,34.7,27.7,08.8,0000.0,0006.23,0002.54,0002.15
2021-10-15 18:21:00,,0832.6,5.00,0.00,25.8,25.1,00.0,34.8,27.7,08.8,0000.0,0005.84,0002.53,0002.16
2021-10-15 18:22:00,,0832.5,5.00,0.00,25.8,25.1,00.0,34.8,27.8,09.0,0000.0,0005.19,0002.49,0002.16
2021-10-15 18:23:00,,0832.5,5.01,0.00,25.8,25.1,00.0,34.8,27.8,08.8,0000.0,0004.91,0002.50,0002.16
2021-10-15 18:24:00,,0832.5,5.00,0.00,25.8,25.1,00.0,34.8,27.8,08.9,0000.0,0003.56,0002.52,0002.17
2021-10-15 18:25:00,,0832.5,4.99,0.00,25.9,25.1,00.0,34.8,27.8,08.9,0000.0,0003.52,0002.51,0002.17
2021-10-15 18:26:00,,0832.4,5.00,0.00,25.9,25.1,00.0,34.8,27.8,08.9,0000.0,0003.65,0002.56,0002.20
2021-10-15 18:27:00,,0832.4,5.00,0.00,25.9,25.1,00.0,34.9,27.9,08.9,0000.0,0003.65,0002.58,0002.23
2021-10-15 18:28:00,,0832.4,5.00,0.00,25.9,25.2,00.0,34.9,27.9,08.7,0000.0,0003.64,0002.59,0002.25
2021-10-15 18:29:00,,0832.3,4.99,0.00,25.9,25.2,00.0,34.9,27.9,08.7,0000.0,0003.46,0002.60,0002.28
2021-10-15 18:30:00,,0832.3,5.01,0.00,25.9,25.2,00.0,34.9,27.9,08.6,0000.0,0003.43,0002.60,0002.30
2021-10-15 18:31:00,,0832.4,5.00,0.00,26.0,25.2,00.0,34.9,27.9,08.7,0000.0,0003.48,0002.62,0002.32
2021-10-15 18:32:00,,0832.3,5.00,0.00,26.0,25.3,00.0,34.9,27.9,08.8,0000.0,0003.52,0002.65,0002.33
2021-10-15 18:33:00,,0832.3,5.00,0.00,26.0,25.3,00.0,34.9,27.9,08.6,0000.0,0003.56,0002.67,0002.34
2021-10-15 18:34:00,,0832.3,5.00,0.00,26.0,25.3,00.0,35.0,27.9,08.4,0000.0,0003.59,0002.68,0002.35
2021-10-15 18:35:00,,0832.4,5.00,0.00,26.0,25.3,00.0,35.0,27.9,08.5,0000.0,0003.58,0002.67,0002.36
2021-10-15 18:36:00,,0832.3,5.01,0.00,26.0,25.3,00.0,35.0,28.0,08.6,0000.0,0003.68,0002.71,0002.36
2021-10-15 18:37:00,,0832.3,5.00,0.00,26.0,25.3,00.0,35.0,28.0,08.6,0000.0,0003.62,0002.66,0002.35
2021-10-15 18:38:00,,0832.3,4.99,0.00,26.0,25.3,00.0,35.0,27.9,08.7,0000.0,0003.51,0002.61,0002.32
2021-10-15 18:39:00,,0832.3,5.00,0.00,26.1,25.3,00.0,35.0,28.0,08.8,0000.0,0003.49,0002.59,0002.29
2021-10-15 18:40:00,,0832.3,5.00,0.00,26.1,25.3,00.0,35.1,28.0,08.9,0000.0,0003.51,0002.58,0002.25
2021-10-15 18:41:00,,0832.3,5.00,0.00,26.1,25.3,00.0,35.1,28.0,08.6,0000.0,0003.53,0002.57,0002.24
2021-10-15 18:42:00,,0832.3,5.00,0.00,26.1,25.3,00.0,35.1,28.0,08.6,0000.0,0003.53,0002.57,0002.22
2021-10-15 18:43:00,,0832.2,5.00,0.00,26.1,25.2,00.0,35.1,28.0,08.6,0000.0,0004.06,0002.54,0002.20
2021-10-15 18:44:00,,0832.2,4.99,0.00,26.1,25.2,00.0,35.1,27.9,08.5,0000.0,0004.51,0002.54,0002.21
2021-10-15 18:45:00,,0832.2,5.00,0.00,26.1,25.2,00.0,35.1,27.9,08.6,0000.0,0004.55,0002.57,0002.21
2021-10-15 18:46:00,,0832.2,5.00,0.00,26.1,25.2,00.0,35.1,27.9,08.6,0000.0,0004.56,0002.58,0002.22
2021-10-15 18:47:00,,0832.3,4.99,0.00,26.1,25.2,00.0,35.1,28.0,08.6,0000.0,0004.48,0002.57,0002.23
2021-10-15 18:48:00,,0832.2,5.01,0.00,26.1,25.2,00.0,35.1,28.0,08.5,0000.0,0004.44,0002.58,0002.24
2021-10-15 18:49:00,,0832.2,5.02,0.00,26.1,25.2,00.0,35.1,28.0,08.4,0000.0,0004.97,0002.61,0002.26
2021-10-15 18:50:00,,0832.2,4.99,0.00,26.1,25.3,00.0,35.1,28.0,08.5,0000.0,0004.99,0002.61,0002.29
2021-10-15 18:51:00,,0832.2,5.01,0.00,26.1,25.3,00.0,35.1,28.0,08.5,0000.0,0004.97,0002.62,0002.32
2021-10-15 18:52:00,,0832.2,5.00,0.00,26.1,25.3,00.0,35.1,28.0,08.5,0000.0,0005.00,0002.62,0002.33
2021-10-15 18:53:00,,0832.1,5.00,0.00,26.1,25.3,00.0,35.1,28.0,08.4,0000.0,0005.07,0002.62,0002.35
2021-10-15 18:54:00,,0832.1,5.00,0.00,26.1,25.3,00.0,35.1,28.0,08.5,0000.0,0004.83,0002.68,0002.36
2021-10-15 18:55:00,,0832.1,5.00,0.00,26.2,25.4,00.0,35.2,28.0,08.4,0000.0,0004.45,0002.72,0002.37
2021-10-15 18:56:00,,0832.1,5.01,0.00,26.2,25.4,00.0,35.2,28.1,08.6,0000.0,0004.58,0002.71,0002.37
2021-10-15 18:57:00,,0832.1,5.00,0.00,26.2,25.4,00.0,35.2,28.1,08.4,0000.0,0005.41,0002.69,0002.37
2021-10-15 18:58:00,,0832.1,5.00,0.00,26.2,25.4,00.0,35.2,28.1,08.5,0000.0,0005.80,0002.70,0002.37
2021-10-15 18:59:00,,0832.1,5.00,0.00,26.2,25.4,00.0,35.2,28.1,08.6,0000.0,0005.83,0002.71,0002.36
